Notices

What's New in latest Release from April 7th, 2021:

- Updated Glossary, including Speed of Maximum Gust, and Total Hourly Precipitation

- Updated national and regional climate services offices contacts and prices information

- Addition of station inventory lists for 1981-2010, 1971-2000, and 1961-1990 Normals.

If you haven't already, please take our survey and provide feedback about our website: https://eccc.sondage-survey.ca/f/LanguageSelection.aspx?s=442ca660-fcf1-47c0-95a9-59707d6fd709

Hourly Data Report for April 19, 2021

KUGAARUK CLIMATE
NUNAVUT
Current Station Operator: ECCC - MSC

68°32'15.060" N
89°47'47.020" W
15.80 m
2303094
71407
NBB

Download Data

Hourly Data (April 2021)
Hourly Data Report for April 19, 2021
TIME
LST
Temp Definition
°C
Dew Point Definition
°C
Rel Hum Definition
%
Precip. Amount Definition
mm

Wind Dir Definition
10's deg

Wind Spd Definition
km/h
Visibility Definition
km
Stn Press Definition
kPa
Hmdx Definition


Wind Chill Definition


Weather Definition


00:00 -14.8 -17.2 82 0.0 32 13   102.15   -22 LegendNANA
01:00 -14.7 -17.1 82 0.0 31 10   102.15   -21 LegendNANA
02:00 -15.0 -17.4 82 0.0 32 12   102.16   -22 LegendNANA
03:00 -15.8 -17.7 86 0.0 33 11   102.17   -23 LegendNANA
04:00 -15.6 -17.7 84 0.0 26 8   102.16   -21 LegendNANA
05:00 -15.5 -17.7 83 0.0 25 13   102.13   -23 LegendNANA
06:00 -14.9 -17.3 82 0.0 24 15   102.10   -23 LegendNANA
07:00 -14.6 -17.4 79 0.0 27 13   102.10   -22 LegendNANA
08:00 -14.2 -17.2 78 0.0 26 14   102.05   -22 LegendNANA
09:00 -13.9 -17.5 75 0.0 22 12   102.03   -21 LegendNANA
10:00 -13.3 -18.0 68 0.0 27 9   101.99   -19 LegendNANA
11:00 -13.4 -17.8 69 0.0 26 12   101.95   -20 LegendNANA
12:00 -12.9 -17.7 68 0.0 27 14   101.92   -20 LegendNANA
13:00 -12.9 -17.6 68 0.0 26 17   101.88   -21 LegendNANA
14:00 -13.5 -17.4 72 0.0 24 16   101.86   -21 LegendNANA
15:00 -13.6 -17.1 75 0.0 22 20   101.83   -22 LegendNANA
16:00 -14.0 -17.5 75 0.0 22 21   101.75   -23 LegendNANA
17:00 -14.3 -17.6 76 0.0 22 13   101.72   -21 LegendNANA
18:00 -14.2 -17.1 78 0.0 22 15   101.63   -22 LegendNANA
19:00 -14.1 -16.7 81 0.0 22 14   101.55   -22 LegendNANA
20:00 -13.7 -16.1 82 0.0 21 16   101.44   -22 LegendNANA
21:00 -13.2 -15.5 83 0.0 22 18   101.36   -21 LegendNANA
22:00 -13.1 -15.4 83 0.0 22 21   101.29   -22 LegendNANA
23:00 -12.8 -15.0 84 0.0 22 20   101.23   -21 LegendNANA

Notes on Data Quality.

Legend

  • E = Estimated
  • M = Missing
  • NA = Not Available*
  • [empty] = Indicates an unobserved value
Date modified: